{"data":{"norad_id":57196,"intl_designator":"2023-091AG","name":"HORS 2","alt_names":[],"object_type":"PAYLOAD","status":"ACTIVE","operator":null,"country":"CIS","launch_date":"2023-06-27","launch_site_code":"VOSTO","launch_vehicle":null,"mission":null,"orbit_class":"UNKNOWN","rcs_meters":null,"size_class":null,"mass_kg":null,"dimensions":null,"purposes":[],"wikipedia_slug":null,"has_3d_model":false,"image_url":null,"decayed_at":null,"tle_current":{"epoch":"2026-09-21T21:36:12.617856Z","epoch_age_seconds":84146,"freshness":"FRESH","line1":"1 57196U 23091AG  26264.90014604  .00009866  00000+0  30157-3 0  9994","line2":"2 57196  97.4997 333.3492 0008916 100.6014 259.6234 15.34041780179346","mean_motion":15.3404178,"eccentricity":0.0008916,"inclination_deg":97.4997,"raan_deg":333.3492,"arg_perigee_deg":100.6014,"mean_anomaly_deg":259.6234,"bstar":0.00030157,"rev_number":17934,"period_min":93.869672832509,"perigee_km":457.66791008521,"apogee_km":469.86839535354,"semimajor_km":6841.9051527194,"source":"CELESTRAK","updated_at":"2026-09-22T09:00:26.080413Z"}}}